Location: *
(43.4667°N, 11.6833°E)
Time: 18:48:23
(UTC+00:00)

COSMOS 2455 - Pass Details

Date: 19 July 2019
Orbit: 899 x 911 km, 67.1° (Epoch: 24 August)

Event Time Altitude Azimuth Distance (km) Brightness Sun altitude
Exits shadow 22:55:29 61° 211° (SSW) 1,028 2.8 -25.5°
Maximum altitude 22:56:39 89° 293° (WNW) 915 2.7 -25.6°
Drops below altitude 10° 23:02:43 10° 31° (NNE) 2,604 5.9 -25.7°
Sets 23:05:15 0° 31° (NNE) 3,550 6.8 -25.7°
